Theta_e
283 282 282 282 281 282 281 281 281 280 280 280 280 279 279 278 279 278 278 278 278 278 278 278 277 277 278 277 277 277 276 276 275 275 275 275 275 275 275 274 274 274
282 282 282 281 282 282 281 281 281 280 280 279 279 279 279 279 278 278 278 278 278 277 277 277 277 276 276 276 276 276 276 275 275 276 275 274 274 274 274 274 274 274
281 281 281 281 281 281 281 280 280 280 280 279 279 279 279 279 278 278 278 278 277 277 277 277 276 276 276 276 276 275 275 275 274 274 274 274 274 274 273 273 273 273
281 281 281 281 281 281 281 280 280 280 279 279 279 279 279 279 278 277 277 278 277 276 276 276 276 276 275 275 275 275 274 274 274 274 274 274 274 273 273 273 273 273
281 281 281 281 281 281 281 280 280 279 279 279 279 279 279 278 277 277 277 276 276 276 276 275 275 275 275 274 274 274 274 273 273 273 273 273 273 273 273 273 272 272
281 281 281 281 281 281 280 280 280 280 279 279 279 279 278 277 277 277 277 277 276 276 275 275 275 275 275 274 273 273 273 273 272 273 272 272 272 273 273 272 272 272
281 280 280 281 280 280 281 280 280 280 279 279 279 278 277 277 277 277 277 277 276 276 276 276 275 275 274 273 273 272 272 272 272 272 272 272 272 272 272 272 272 271
281 281 280 280 280 280 280 280 279 279 279 278 278 278 277 277 278 277 277 277 277 276 276 275 275 275 274 273 273 273 272 272 272 272 271 271 271 271 271 271 271 271
281 280 280 280 280 280 280 280 279 279 279 278 278 277 277 277 277 278 277 277 276 275 276 275 275 274 274 273 273 273 272 271 271 271 271 270 270 270 270 270 270 270
280 280 280 280 280 280 280 279 279 279 278 278 278 277 277 277 278 277 276 276 275 275 275 275 274 274 273 273 273 272 271 271 270 270 270 270 270 270 270 270 269 269
280 280 279 279 280 280 279 279 279 278 278 278 277 277 277 277 277 276 276 276 275 275 275 274 274 273 273 272 272 271 271 271 270 270 270 270 270 270 271 270 269 269
280 279 280 280 280 279 279 280 279 279 278 277 278 278 278 277 277 276 276 276 275 275 274 274 273 273 273 272 271 271 271 271 271 271 270 270 270 270 270 269 269 269
280 280 280 280 280 280 280 280 279 279 278 278 278 278 278 277 277 276 276 275 275 274 274 274 273 273 272 272 271 271 271 271 271 270 270 270 269 269 269 269 269 269
280 280 280 281 281 281 280 280 279 279 278 278 278 278 278 277 276 276 276 275 274 274 274 273 273 272 272 272 272 272 271 270 270 270 270 270 269 269 269 269 269 269
281 281 281 280 280 281 280 280 279 279 279 279 278 278 278 277 277 276 275 274 274 273 273 273 272 272 272 272 272 272 271 271 271 271 270 270 269 269 268 268 268 268
280 280 280 280 280 280 280 279 279 279 279 279 278 278 277 277 276 275 275 274 273 273 273 273 272 272 274 276 275 272 272 272 272 271 270 269 269 269 268 268 268 268
280 280 280 280 281 280 279 278 278 279 279 279 278 277 276 276 275 275 275 274 273 272 272 273 272 272 276 279 279 278 273 272 271 271 270 269 269 269 268 268 268 268
281 280 280 281 280 280 279 278 278 278 278 278 277 277 276 275 275 275 275 274 273 273 272 273 273 275 278 280 280 280 277 272 272 271 270 270 269 269 268 268 268 267
281 281 281 280 280 279 277 276 277 277 277 277 277 276 274 274 275 274 274 273 273 273 272 273 272 277 279 281 281 281 280 275 272 272 271 270 270 269 268 268 267 267
281 281 281 280 278 277 276 276 276 277 277 276 275 274 273 273 273 273 274 272 272 272 272 272 272 276 280 281 282 282 282 277 272 272 272 271 270 269 268 268 268 267
281 281 280 279 277 276 276 276 276 275 275 274 274 274 273 273 273 272 272 271 271 272 271 271 271 276 280 281 282 283 283 279 273 272 272 271 271 270 269 268 267 267
281 280 280 278 277 276 275 276 275 275 275 274 273 273 272 271 271 271 271 271 271 271 271 271 271 277 279 281 282 283 284 279 274 273 272 271 271 270 269 268 267 267
281 280 279 278 276 275 275 275 275 274 274 272 272 273 273 272 272 272 271 271 270 270 270 271 271 275 279 281 282 283 283 276 273 273 272 270 270 270 269 268 267 267
281 280 279 277 276 276 276 276 276 274 273 272 273 272 273 272 272 271 270 270 270 270 270 270 270 273 278 280 282 283 282 273 272 271 271 270 268 269 268 267 267 269
280 280 279 277 277 277 276 276 275 275 274 272 272 272 273 271 270 271 270 269 270 270 272 271 270 272 277 279 282 282 281 273 272 271 270 269 268 267 268 267 267 268
279 279 279 278 278 277 276 276 276 274 273 273 272 272 272 270 270 270 270 269 269 269 270 271 270 269 272 279 281 282 282 274 272 270 270 269 268 268 265 265 266 265
Wind_Speed
7 6 9 8 8 7 8 8 7 7 7 6 7 7 7 5 4 5 6 6 5 7 6 5 4 6 6 6 7 7 7 8 7 6 7 7 6 6 6 5 5 6
7 7 6 7 7 6 6 6 7 8 8 6 6 6 5 6 4 6 7 7 7 7 6 5 5 6 6 6 6 8 7 7 7 3 7 8 6 6 6 5 6 4
8 7 8 10 10 10 8 6 6 6 7 6 6 5 6 5 6 5 6 7 8 7 7 6 6 5 6 6 6 7 7 7 7 5 7 7 5 7 5 5 5 5
7 8 9 8 9 10 8 8 6 6 6 7 6 6 6 5 5 6 6 6 8 7 6 6 6 6 6 6 6 6 6 6 6 6 8 6 5 6 5 5 5 5
9 8 6 7 6 7 7 8 9 8 7 7 6 6 6 6 6 6 6 6 6 7 6 7 6 6 6 6 5 7 5 6 5 6 7 7 4 6 4 5 5 5
6 7 7 7 7 9 8 8 8 9 8 8 8 6 5 6 6 6 6 7 6 7 7 7 7 7 7 6 5 5 6 6 5 6 7 7 5 4 4 5 5 5
9 8 8 7 7 7 8 8 7 7 7 6 6 6 6 6 6 6 6 6 7 7 8 8 9 7 6 7 6 6 4 5 5 6 8 6 6 5 4 5 5 5
9 7 8 7 7 7 7 7 7 7 7 7 7 6 6 6 6 6 5 6 6 6 6 7 6 8 7 7 7 7 5 3 5 6 7 5 5 5 4 4 5 5
8 8 7 8 8 7 8 8 7 7 6 8 7 6 5 5 6 6 5 5 5 5 7 6 8 7 6 7 7 7 7 4 4 5 6 6 5 5 5 4 4 4
8 7 8 8 9 8 8 7 7 7 6 7 6 6 6 5 5 6 5 5 6 6 5 4 6 7 6 5 6 6 6 7 5 4 4 4 6 6 5 5 5 5
9 9 9 9 9 8 8 8 8 7 6 7 7 6 6 6 6 5 6 6 6 7 5 7 8 7 8 7 5 4 5 6 6 5 5 4 5 5 6 6 5 5
10 9 11 11 10 9 9 9 8 8 7 6 6 8 7 6 7 6 6 6 6 6 5 6 6 7 8 7 7 5 4 5 6 5 5 4 4 4 5 5 5 5
11 12 11 11 10 9 8 8 9 8 8 8 7 8 8 7 7 7 5 5 6 5 6 7 7 7 7 6 5 5 6 6 5 5 4 3 3 3 4 4 4 4
11 10 10 10 9 9 9 9 8 8 8 7 7 8 8 8 8 8 6 5 5 5 6 6 8 6 5 5 5 5 6 5 6 6 6 4 3 3 3 3 3 3
9 8 7 8 9 10 10 9 9 8 8 8 7 7 6 7 7 7 7 6 5 6 6 5 5 4 4 5 6 6 6 7 6 7 7 6 5 3 3 3 2 3
9 8 8 8 10 11 10 9 9 9 9 9 9 8 7 7 7 7 7 7 8 7 5 4 4 4 8 12 10 6 6 6 5 6 6 6 6 4 3 3 3 2
9 9 9 11 10 9 9 10 10 9 9 9 8 8 9 8 8 8 8 7 9 9 8 6 7 7 12 14 14 14 8 7 6 6 5 6 5 6 5 4 3 4
10 10 10 11 10 10 9 9 8 9 9 9 9 9 8 8 8 9 8 7 7 7 8 7 6 10 15 15 15 16 12 7 6 5 5 5 6 6 5 4 5 4
10 11 11 10 10 9 8 8 9 9 9 10 11 8 7 8 9 9 9 7 8 9 8 7 7 12 16 17 16 16 16 11 5 6 6 5 5 6 5 5 5 5
10 10 10 9 8 8 8 8 9 11 9 7 6 6 9 8 7 10 8 8 8 8 8 7 7 11 17 17 17 17 17 11 5 7 6 6 6 6 5 6 5 5
11 10 10 9 8 8 8 9 10 7 7 8 9 10 10 11 11 9 8 6 7 8 7 7 7 13 16 18 18 18 17 13 6 6 6 5 5 6 6 5 5 5
11 10 10 9 9 9 10 10 9 10 10 8 7 6 5 5 5 5 8 9 8 7 7 9 7 14 17 17 18 17 19 8 7 7 6 6 6 7 5 5 5 6
11 11 11 10 10 10 10 11 11 10 8 7 8 8 8 8 9 9 8 8 8 8 9 9 7 12 17 17 17 18 14 5 6 5 6 6 6 6 5 5 5 6
11 12 12 11 10 13 13 11 9 6 7 7 10 10 10 11 8 7 6 7 9 10 10 9 7 9 16 17 18 18 13 6 6 6 5 5 5 5 5 5 5 11
10 10 11 11 12 12 11 11 11 11 9 8 8 6 8 5 6 7 7 6 7 8 7 9 8 9 15 17 18 18 12 6 7 6 6 6 5 5 4 5 5 7
9 10 10 11 12 10 9 10 8 6 8 9 8 8 7 6 6 7 8 7 6 6 7 8 8 7 9 17 17 18 17 7 7 8 9 8 6 6 5 4 5 6
Wind_Direction
148 150 150 149 148 147 148 149 152 145 146 149 143 147 145 141 127 112 108 101 98 97 93 91 94 97 97 96 99 98 98 103 102 107 107 108 107 112 108 106 93 98
157 151 145 138 133 133 139 147 152 153 149 144 139 134 132 132 131 128 129 119 109 109 111 110 106 110 110 109 109 109 107 108 106 112 108 101 105 99 98 96 96 92
156 152 155 158 156 153 150 147 144 143 139 135 131 137 138 138 136 133 132 131 125 127 126 124 119 116 113 113 114 112 118 116 111 110 101 101 102 98 96 95 85 82
163 161 160 159 154 152 150 143 140 132 128 136 152 150 140 140 137 138 136 133 130 129 128 121 120 117 113 114 113 106 112 108 120 120 105 94 92 101 95 93 91 80
163 159 160 156 150 143 145 149 151 151 151 148 136 142 140 142 143 143 141 136 133 131 127 125 122 120 117 116 118 117 115 118 124 117 108 101 92 98 101 97 96 89
156 156 155 159 157 153 156 158 158 154 149 151 157 143 145 143 145 150 150 143 142 138 135 135 135 131 129 127 122 121 130 124 131 117 109 110 101 86 97 101 102 99
162 160 163 158 155 157 155 157 154 150 154 148 133 150 149 151 154 155 152 150 146 148 148 146 138 135 136 133 127 124 119 124 125 118 114 114 111 98 96 104 109 110
165 163 158 156 156 156 156 158 156 154 151 142 153 153 153 154 154 148 150 154 151 149 149 138 132 124 138 134 130 129 128 133 128 121 117 121 116 118 113 116 121 117
160 162 157 160 159 163 165 161 156 152 152 153 155 154 151 152 152 147 149 145 147 150 146 141 141 135 142 131 135 140 141 140 135 134 136 137 132 135 132 128 123 131
165 158 159 165 169 173 168 160 157 157 153 152 152 148 152 150 144 145 141 150 159 166 171 150 144 140 130 128 139 147 147 145 138 127 128 137 141 145 145 145 150 147
169 165 168 173 175 171 168 162 162 156 154 156 149 155 155 148 146 144 151 163 178 182 165 151 146 142 123 117 123 143 148 140 139 134 133 141 146 152 154 154 162 165
175 171 179 179 175 172 170 167 161 158 158 155 158 159 157 162 157 158 165 175 177 181 171 145 139 114 116 124 125 134 135 130 125 130 132 137 150 155 153 162 163 164
181 184 180 178 176 173 165 164 165 162 161 164 165 167 165 164 162 160 170 171 176 173 172 156 132 121 120 132 139 143 139 138 133 129 130 134 154 161 153 156 160 160
187 182 179 177 171 166 169 167 163 164 166 161 164 170 171 169 170 172 164 161 173 173 171 157 132 132 131 135 149 144 147 142 147 145 146 149 160 163 154 151 162 172
178 175 172 169 168 170 169 169 168 165 164 166 172 172 170 171 165 160 158 163 173 175 159 151 144 151 136 153 149 155 155 154 152 150 156 162 165 162 155 156 162 178
173 170 170 169 174 177 175 168 166 167 170 172 176 176 170 166 163 160 168 174 159 168 159 154 157 139 176 177 174 159 155 151 150 157 161 165 166 162 167 175 180 178
170 173 171 182 183 174 170 169 170 170 173 175 175 175 174 168 164 171 178 179 174 162 164 181 180 172 183 187 185 180 164 162 161 159 160 167 172 171 179 179 186 181
176 173 178 184 178 180 174 172 166 169 176 177 176 176 176 165 175 182 180 180 182 185 187 192 183 189 190 195 194 190 179 167 163 156 161 169 167 177 178 176 183 188
174 177 182 181 184 175 170 166 170 176 180 180 187 179 156 175 186 179 189 182 184 189 194 193 193 193 198 200 201 197 189 177 161 160 162 170 177 181 180 183 181 199
175 179 183 182 172 169 166 172 178 191 188 177 162 159 176 184 186 189 188 188 188 193 194 197 198 199 201 205 205 202 196 180 161 168 175 171 175 182 182 186 188 194
177 179 180 173 172 169 173 184 190 184 177 180 178 183 184 190 190 190 193 186 191 194 195 199 205 202 207 209 209 207 202 185 178 174 171 177 179 177 183 187 194 198
176 176 177 172 172 175 180 188 187 188 189 181 176 183 190 178 195 189 190 196 196 188 192 210 209 206 210 212 212 211 211 187 183 183 179 178 188 190 184 189 190 204
177 177 179 177 176 175 187 191 190 191 189 167 178 188 190 195 198 198 196 190 190 192 200 213 207 209 211 213 213 211 213 163 179 180 184 180 189 188 190 193 198 204
180 179 179 177 175 188 194 196 191 184 183 175 187 190 198 202 197 193 196 195 195 201 202 206 211 205 210 214 213 211 207 170 177 180 187 187 184 193 192 202 210 217
179 178 180 181 188 196 191 189 190 193 186 175 192 189 205 183 183 196 205 205 205 205 195 204 214 206 210 214 213 211 206 157 177 180 193 199 188 209 209 207 225 229
175 180 183 184 192 193 189 196 186 166 172 181 194 193 191 187 191 199 207 214 201 200 207 210 210 210 209 214 214 212 206 168 183 179 205 205 202 212 215 231 222 228